• en Suisse
  • Liste des pays
  • À 7 jours
  • Température de l'eau
  • Carte satellitaire
  • Carte météo
  • Widgets météo
  • user-avatar
    Se connecter

    Météo par heure à Kirov

    Ce jour, 19 Juillet, Jeudi

    Heure Température Précipitation Vent Pression Humidité
    00:00 +23°C° 0 mm 2 m/s 746 mmHg 68%
    01:00 +23°C° 0 mm 2 m/s 746 mmHg 70%
    02:00 +23°C° 0 mm 1 m/s 746 mmHg 72%
    03:00 +22°C° 0 mm 1 m/s 746 mmHg 73%
    04:00 +23°C° 0 mm 1 m/s 747 mmHg 73%
    05:00 +23°C° 0 mm 1 m/s 747 mmHg 74%
    06:00 +23°C° 0 mm 2 m/s 747 mmHg 74%
    07:00 +25°C° 0,1 mm 2 m/s 747 mmHg 68%
    08:00 +26°C° 0,1 mm 2 m/s 747 mmHg 62%
    09:00 +28°C° 0,1 mm 3 m/s 747 mmHg 56%
    10:00 +28°C° 0,1 mm 3 m/s 747 mmHg 55%
    11:00 +28°C° 0,1 mm 4 m/s 747 mmHg 55%
    12:00 +29°C° 0,1 mm 5 m/s 747 mmHg 54%
    13:00 +29°C° 0,1 mm 4 m/s 747 mmHg 52%
    14:00 +29°C° 0,1 mm 4 m/s 747 mmHg 51%
    15:00 +29°C° 0,1 mm 3 m/s 747 mmHg 49%
    16:00 +29°C° 0 mm 3 m/s 747 mmHg 49%
    17:00 +29°C° 0 mm 3 m/s 747 mmHg 50%
    18:00 +29°C° 0 mm 3 m/s 747 mmHg 51%
    19:00 +28°C° 0 mm 3 m/s 747 mmHg 55%
    20:00 +26°C° 0 mm 2 m/s 747 mmHg 60%
    21:00 +25°C° 0 mm 2 m/s 747 mmHg 65%
    22:00 +25°C° 0 mm 1 m/s 747 mmHg 67%
    23:00 +24°C° 0 mm 1 m/s 747 mmHg 69%

    Demain, 20 Juillet, Vendredi

    Heure Température Précipitation Vent Pression Humidité
    00:00 +24°C° 0 mm 1 m/s 747 mmHg 72%
    01:00 +23°C° 0 mm 1 m/s 747 mmHg 73%
    02:00 +23°C° 0 mm 1 m/s 747 mmHg 74%
    03:00 +23°C° 0 mm 1 m/s 747 mmHg 76%
    04:00 +23°C° 0 mm 1 m/s 747 mmHg 77%
    05:00 +23°C° 0 mm 2 m/s 747 mmHg 78%
    06:00 +23°C° 0 mm 2 m/s 747 mmHg 79%
    07:00 +25°C° 0 mm 2 m/s 747 mmHg 73%
    08:00 +26°C° 0 mm 2 m/s 748 mmHg 66%
    09:00 +28°C° 0 mm 2 m/s 748 mmHg 59%
    10:00 +29°C° 0,1 mm 3 m/s 748 mmHg 54%
    11:00 +30°C° 0,1 mm 3 m/s 748 mmHg 49%
    12:00 +33°C° 0,1 mm 3 m/s 748 mmHg 43%
    13:00 +33°C° 0 mm 4 m/s 748 mmHg 41%
    14:00 +34°C° 0 mm 4 m/s 747 mmHg 39%
    15:00 +34°C° 0 mm 4 m/s 747 mmHg 37%
    16:00 +34°C° 0 mm 4 m/s 747 mmHg 38%
    17:00 +33°C° 0 mm 4 m/s 747 mmHg 40%
    18:00 +33°C° 0 mm 3 m/s 747 mmHg 42%
    19:00 +30°C° 0,1 mm 3 m/s 747 mmHg 47%
    20:00 +28°C° 0,1 mm 3 m/s 748 mmHg 53%
    21:00 +26°C° 0,1 mm 2 m/s 748 mmHg 59%
    22:00 +25°C° 0,1 mm 2 m/s 748 mmHg 61%
    23:00 +25°C° 0,1 mm 2 m/s 748 mmHg 63%

    Après-demain, 21 Juillet, Samedi

    Heure Température Précipitation Vent Pression Humidité
    00:00 +24°C° 0,1 mm 2 m/s 748 mmHg 65%
    01:00 +23°C° 0 mm 2 m/s 748 mmHg 67%
    02:00 +23°C° 0 mm 2 m/s 748 mmHg 69%
    03:00 +21°C° 0 mm 2 m/s 748 mmHg 71%
    04:00 +23°C° 0 mm 2 m/s 748 mmHg 72%
    05:00 +23°C° 0 mm 2 m/s 748 mmHg 72%
    06:00 +23°C° 0 mm 2 m/s 748 mmHg 73%
    07:00 +25°C° 0 mm 2 m/s 749 mmHg 67%
    08:00 +27°C° 0 mm 3 m/s 749 mmHg 61%
    09:00 +29°C° 0 mm 3 m/s 749 mmHg 55%
    10:00 +30°C° 0 mm 4 m/s 749 mmHg 50%
    11:00 +33°C° 0 mm 4 m/s 749 mmHg 46%
    12:00 +34°C° 0 mm 4 m/s 749 mmHg 41%
    13:00 +34°C° 0 mm 4 m/s 749 mmHg 41%
    14:00 +34°C° 0 mm 4 m/s 749 mmHg 41%
    15:00 +34°C° 0 mm 4 m/s 748 mmHg 41%
    16:00 +33°C° 0 mm 4 m/s 748 mmHg 42%
    17:00 +33°C° 0 mm 4 m/s 749 mmHg 43%
    18:00 +33°C° 0 mm 4 m/s 749 mmHg 43%
    19:00 +30°C° 0 mm 3 m/s 749 mmHg 48%
    20:00 +29°C° 0 mm 3 m/s 749 mmHg 52%
    21:00 +27°C° 0 mm 3 m/s 749 mmHg 57%
    22:00 +26°C° 0 mm 3 m/s 749 mmHg 59%
    23:00 +26°C° 0 mm 3 m/s 749 mmHg 62%

    22 Juillet, Dimanche

    Heure Température Précipitation Vent Pression Humidité
    00:00 +25°C° 0 mm 3 m/s 749 mmHg 65%
    01:00 +24°C° 0 mm 3 m/s 749 mmHg 67%
    02:00 +24°C° 0 mm 2 m/s 749 mmHg 69%
    03:00 +23°C° 0 mm 2 m/s 749 mmHg 71%
    04:00 +24°C° 0 mm 2 m/s 749 mmHg 72%
    05:00 +24°C° 0 mm 2 m/s 749 mmHg 74%
    06:00 +24°C° 0 mm 2 m/s 749 mmHg 75%
    07:00 +26°C° 0 mm 3 m/s 749 mmHg 68%
    08:00 +28°C° 0 mm 3 m/s 749 mmHg 61%
    09:00 +30°C° 0 mm 3 m/s 749 mmHg 54%
    10:00 +32°C° 0,1 mm 4 m/s 749 mmHg 50%
    11:00 +33°C° 0,1 mm 4 m/s 749 mmHg 45%
    12:00 +34°C° 0,1 mm 4 m/s 749 mmHg 41%
    13:00 +34°C° 0,1 mm 4 m/s 749 mmHg 41%
    14:00 +34°C° 0,1 mm 4 m/s 749 mmHg 42%
    15:00 +34°C° 0,1 mm 4 m/s 748 mmHg 42%
    16:00 +34°C° 0 mm 4 m/s 748 mmHg 42%
    17:00 +33°C° 0 mm 4 m/s 748 mmHg 43%
    18:00 +33°C° 0 mm 3 m/s 748 mmHg 43%
    19:00 +30°C° 0 mm 3 m/s 748 mmHg 48%
    20:00 +29°C° 0 mm 3 m/s 749 mmHg 52%
    21:00 +27°C° 0 mm 2 m/s 749 mmHg 57%
    22:00 +26°C° 0 mm 2 m/s 749 mmHg 60%
    23:00 +26°C° 0 mm 2 m/s 749 mmHg 62%

    23 Juillet, Lundi

    Heure Température Précipitation Vent Pression Humidité
    00:00 +25°C° 0 mm 2 m/s 748 mmHg 65%
    01:00 +25°C° 0 mm 2 m/s 748 mmHg 67%
    02:00 +24°C° 0 mm 1 m/s 748 mmHg 69%
    03:00 +24°C° 0 mm 1 m/s 748 mmHg 71%
    04:00 +24°C° 0 mm 1 m/s 748 mmHg 72%
    05:00 +24°C° 0 mm 1 m/s 748 mmHg 72%
    06:00 +23°C° 0 mm 0 m/s 748 mmHg 72%
    07:00 +24°C° 0 mm 0 m/s 749 mmHg 65%
    08:00 +28°C° 0 mm 1 m/s 749 mmHg 58%
    09:00 +30°C° 0 mm 1 m/s 749 mmHg 51%
    10:00 +31°C° 0 mm 1 m/s 748 mmHg 47%
    11:00 +32°C° 0 mm 2 m/s 748 mmHg 43%
    12:00 +34°C° 0 mm 2 m/s 748 mmHg 39%
    13:00 +34°C° 0 mm 2 m/s 748 mmHg 38%
    14:00 +35°C° 0 mm 2 m/s 748 mmHg 38%
    15:00 +34°C° 0 mm 1 m/s 747 mmHg 37%
    16:00 +33°C° 0 mm 1 m/s 748 mmHg 39%
    17:00 +33°C° 0 mm 1 m/s 748 mmHg 40%
    18:00 +33°C° 0 mm 1 m/s 748 mmHg 42%
    19:00 +32°C° 0,3 mm 1 m/s 748 mmHg 45%
    20:00 +30°C° 0,3 mm 1 m/s 748 mmHg 48%
    21:00 +29°C° 0,3 mm 1 m/s 748 mmHg 51%
    22:00 +28°C° 0,5 mm 1 m/s 748 mmHg 56%
    23:00 +27°C° 0,5 mm 1 m/s 748 mmHg 60%

    24 Juillet, Mardi

    Heure Température Précipitation Vent Pression Humidité
    00:00 +27°C° 0,5 mm 1 m/s 748 mmHg 64%
    01:00 +26°C° 0,2 mm 1 m/s 748 mmHg 67%
    02:00 +26°C° 0,2 mm 1 m/s 748 mmHg 69%
    03:00 +25°C° 0,2 mm 1 m/s 748 mmHg 72%
    04:00 +25°C° 0 mm 1 m/s 748 mmHg 73%
    05:00 +25°C° 0 mm 1 m/s 748 mmHg 73%
    06:00 +25°C° 0 mm 1 m/s 748 mmHg 74%
    07:00 +27°C° 0,2 mm 1 m/s 748 mmHg 68%
    08:00 +28°C° 0,2 mm 1 m/s 748 mmHg 61%
    09:00 +30°C° 0,2 mm 2 m/s 749 mmHg 55%
    10:00 +31°C° 0,2 mm 2 m/s 749 mmHg 51%
    11:00 +32°C° 0,2 mm 1 m/s 749 mmHg 46%
    12:00 +34°C° 0,2 mm 1 m/s 749 mmHg 41%
    13:00 +34°C° 0 mm 1 m/s 748 mmHg 40%
    14:00 +34°C° 0 mm 1 m/s 748 mmHg 40%
    15:00 +34°C° 0 mm 1 m/s 748 mmHg 39%
    16:00 +33°C° 0 mm 1 m/s 748 mmHg 40%
    17:00 +33°C° 0 mm 1 m/s 748 mmHg 41%
    18:00 +33°C° 0 mm 1 m/s 749 mmHg 42%
    19:00 +32°C° 0 mm 1 m/s 749 mmHg 45%
    20:00 +30°C° 0 mm 1 m/s 749 mmHg 47%
    21:00 +29°C° 0 mm 1 m/s 749 mmHg 50%
    22:00 +28°C° 0 mm 1 m/s 749 mmHg 53%
    23:00 +28°C° 0 mm 1 m/s 749 mmHg 55%
    Voir plus